Terug naar catalogus

STARLINK-36946

ActiefCommunicatieSSO
NORAD 68382·PAYLOAD·🇺🇸 United States

Gelanceerd Mar 26, 2026 vanaf Vandenberg Space Force Base

Loading…

Volgende Passages (komende 24 uur)

TLE

VersSource: CelesTrak SupGP

Epoch: Sep 14, 2026, 22:49 UTC

1 68382C 26063C   26257.95118056 -.00021028  00000+0 -65308-3 0  2577
2 68382  97.2859  38.9372 0000816  86.6330 189.1229 15.33435209    10

Volg STARLINK-36946 in realtime met AllMySat

Download on the App Store